Powrót do katalogu

IRIDIUM 38

AktywnyŁącznośćPO
NORAD 25043·PAYLOAD·🇺🇸 United States

Wystrzelony Nov 9, 1997 z Vandenberg Space Force Base

Loading…

Następne Przeloty (najbliższe 24 godziny)

TLE

ŚwieżeSource: Space-Track

Epoka: Sep 14, 2026, 09:07 UTC

1 25043U 97069E   26257.38050603  .00000299  00000-0  91284-4 0  9990
2 25043  86.3946  42.0373 0003803  71.1019 289.0591 14.38532860511241

Śledź IRIDIUM 38 w czasie rzeczywistym z AllMySat

Download on the App Store